Regional Weather Roundup
Issued by NWS

Home | Current Version | Previous Version | Graphics & Text | Print | Product List | Glossary On
Versions: 1 2 3 4 5 6 7 8 9 10 11 12 13 14 15 16 17 18 19 20 21 22 23 24 25 26 27 28 29 30 31 32 33 34 35 36 37 38 39 40 41 42 43 44 45 46 47 48 49 50
000
ASUS43 KTOP 281508
RWRKS

WEATHER ROUNDUP FOR KANSAS
NATIONAL WEATHER SERVICE GOODLAND KS
1000 AM CDT SAT MAR 28 2015

NOTE:  "FAIR" INDICATES FEW OR NO CLOUDS BELOW 12,000 FEET WITH NO
SIGNIFICANT WEATHER AND/OR OBSTRUCTIONS TO VISIBILITY.

KSZ001>006-013>018-027>032-041>047-281600-
NORTHWEST KANSAS

CITY           SKY/WX    TMP DP  RH WIND       PRES   REMARKS
GOODLAND       SUNNY     58  36  43 W8        30.04S
HAYS           MOSUNNY   46  32  57 NE5       30.03S
HILL CITY      SUNNY     46  32  58 E3        30.04S
RUSSELL        SUNNY     46  35  65 NE6       30.02R
$$

KSZ061>065-074>080-084>089-281600-
SOUTHWEST KANSAS

CITY           SKY/WX    TMP DP  RH WIND       PRES   REMARKS
DODGE CITY     SUNNY     61  36  39 N9        30.02R
ELKHART          N/A     62  36  38 W9          N/A
GARDEN CITY    SUNNY     56  37  49 NW7       30.02R
GREAT BEND     SUNNY     46  36  66 N8        30.03R
LIBERAL        SUNNY     59  37  44 N13       30.05R
PRATT          SUNNY     55  37  50 N10       30.01R
$$

KSZ066>073-081>083-090>101-281600-
SOUTHEAST KANSAS

CITY           SKY/WX    TMP DP  RH WIND       PRES   REMARKS
CHANUTE        MOSUNNY   48  32  53 SE12      30.10R
COFFEYVILLE    MOSUNNY   50  35  56 S12       30.09R
HUTCHINSON     SUNNY     48  36  63 VRB3      30.03R
MEDICINE LODGE   N/A     53  40  61 CALM      29.99S
NEWTON         SUNNY     46  32  57 SE7       30.05S
PARSONS        MOSUNNY   49  37  63 SE8       30.10F
WICHITA INTL   MOSUNNY   50  37  61 S7        30.02S
WICHITA JABRA  SUNNY     49  36  61 S6        30.03R
WICHITA MCCONL SUNNY     51  38  61 SE6       30.03R
WINFIELD       SUNNY     54  40  59 S10       30.04R
$$

KSZ007>012-019>026-033>040-048>060-102>105-281600-
NORTHEAST KANSAS

CITY           SKY/WX    TMP DP  RH WIND       PRES   REMARKS
CONCORDIA      SUNNY     43  27  53 E10       30.06S
EMPORIA        SUNNY     45  30  55 SE14      30.07S
LAWRENCE       MOSUNNY   44  27  51 E16       30.15R
MANHATTAN      SUNNY     46  29  51 E10       30.09R
MARYSVILLE     SUNNY     41  28  60 SE15      30.10R
OLATHE IND     MOSUNNY   42  27  55 SE17      30.16R
OLATHE EXE     CLOUDY    39  28  64 E17       30.15S WCI  30
SALINA         SUNNY     47  33  58 SE6       30.05R
TOPEKA BILLARD SUNNY     43  26  51 E17       30.14R
TOPEKA FORBES  SUNNY     45  27  49 SE16G25   30.11S
$$


USA.gov is the U.S. government's official web portal to all federal, state and local government web resources and services.